QPF
0.00 0.00 0.00 0.00 0.00 0.00 0.00 0.00 0.00 0.00 0.00 0.00 0.00 0.00 0.00 0.00 0.00 0.00 0.00 0.00 0.00 0.00 0.00 0.00 0.00 0.00 0.00 0.00 0.00 0.00 0.00 0.00 0.00 0.00 0.00 0.00 0.00 0.00 0.00 0.00 0.00 0.00 0.00 0.00
0.00 0.00 0.00 0.00 0.00 0.00 0.00 0.00 0.00 0.00 0.00 0.00 0.00 0.00 0.00 0.00 0.00 0.00 0.00 0.00 0.00 0.00 0.00 0.00 0.00 0.00 0.00 0.00 0.00 0.00 0.00 0.00 0.00 0.00 0.00 0.00 0.00 0.00 0.00 0.00 0.00 0.00 0.00 0.00
0.00 0.00 0.00 0.00 0.00 0.00 0.00 0.00 0.00 0.00 0.00 0.00 0.00 0.00 0.00 0.00 0.00 0.00 0.00 0.00 0.00 0.00 0.00 0.00 0.00 0.00 0.00 0.00 0.00 0.00 0.00 0.00 0.00 0.00 0.00 0.00 0.00 0.00 0.00 0.00 0.00 0.00 0.00 0.00
0.00 0.00 0.00 0.00 0.00 0.00 0.00 0.00 0.00 0.00 0.00 0.00 0.00 0.00 0.00 0.00 0.00 0.00 0.00 0.00 0.00 0.00 0.00 0.00 0.00 0.00 0.00 0.00 0.00 0.00 0.00 0.00 0.00 0.00 0.00 0.00 0.00 0.00 0.00 0.00 0.00 0.00 0.00 0.00
0.00 0.00 0.00 0.00 0.00 0.00 0.00 0.00 0.00 0.00 0.00 0.00 0.00 0.00 0.00 0.00 0.00 0.00 0.00 0.00 0.00 0.00 0.00 0.00 0.00 0.00 0.00 0.00 0.00 0.00 0.00 0.00 0.00 0.00 0.00 0.00 0.00 0.00 0.00 0.00 0.00 0.00 0.00 0.00
0.00 0.00 0.00 0.00 0.00 0.00 0.00 0.00 0.00 0.00 0.00 0.00 0.00 0.00 0.00 0.00 0.00 0.00 0.00 0.00 0.00 0.00 0.00 0.00 0.00 0.00 0.00 0.00 0.00 0.00 0.00 0.00 0.00 0.00 0.00 0.00 0.00 0.00 0.00 0.00 0.00 0.00 0.00 0.00
0.00 0.00 0.00 0.00 0.00 0.00 0.00 0.00 0.00 0.00 0.00 0.00 0.00 0.00 0.00 0.00 0.00 0.00 0.00 0.00 0.00 0.00 0.00 0.00 0.00 0.00 0.00 0.00 0.00 0.00 0.00 0.00 0.00 0.00 0.00 0.00 0.00 0.00 0.00 0.00 0.00 0.00 0.00 0.00
0.00 0.00 0.00 0.00 0.00 0.00 0.00 0.00 0.00 0.00 0.00 0.00 0.00 0.00 0.00 0.00 0.00 0.00 0.00 0.00 0.00 0.00 0.00 0.00 0.00 0.00 0.00 0.00 0.00 0.00 0.00 0.00 0.00 0.00 0.00 0.00 0.00 0.00 0.00 0.00 0.00 0.00 0.00 0.00
0.00 0.00 0.00 0.00 0.00 0.00 0.00 0.00 0.00 0.00 0.00 0.00 0.00 0.00 0.00 0.00 0.00 0.00 0.00 0.00 0.00 0.00 0.00 0.00 0.00 0.00 0.00 0.00 0.00 0.00 0.00 0.00 0.00 0.00 0.00 0.00 0.00 0.00 0.00 0.00 0.00 0.00 0.00 0.00
0.00 0.00 0.00 0.00 0.00 0.00 0.00 0.00 0.00 0.00 0.00 0.00 0.00 0.00 0.00 0.00 0.00 0.00 0.00 0.00 0.00 0.00 0.00 0.00 0.00 0.00 0.00 0.00 0.00 0.00 0.00 0.00 0.00 0.00 0.00 0.00 0.00 0.00 0.00 0.00 0.00 0.00 0.00 0.00
0.00 0.00 0.00 0.00 0.00 0.00 0.00 0.00 0.00 0.00 0.00 0.00 0.00 0.00 0.00 0.00 0.00 0.00 0.00 0.00 0.00 0.00 0.00 0.00 0.00 0.00 0.00 0.00 0.00 0.00 0.00 0.00 0.00 0.00 0.00 0.00 0.00 0.00 0.00 0.00 0.00 0.00 0.00 0.00
0.00 0.00 0.00 0.00 0.00 0.00 0.00 0.00 0.00 0.00 0.00 0.00 0.00 0.00 0.00 0.00 0.00 0.00 0.00 0.00 0.00 0.00 0.00 0.00 0.00 0.00 0.00 0.00 0.00 0.00 0.00 0.00 0.00 0.00 0.00 0.00 0.00 0.00 0.00 0.00 0.00 0.00 0.00 0.00
0.00 0.00 0.00 0.00 0.00 0.00 0.00 0.00 0.00 0.00 0.00 0.00 0.00 0.00 0.00 0.00 0.00 0.00 0.00 0.00 0.00 0.00 0.00 0.00 0.00 0.00 0.00 0.00 0.00 0.00 0.00 0.00 0.00 0.00 0.00 0.00 0.00 0.00 0.00 0.00 0.00 0.00 0.00 0.00
0.00 0.00 0.00 0.00 0.00 0.00 0.00 0.00 0.00 0.00 0.00 0.00 0.00 0.00 0.00 0.00 0.00 0.00 0.00 0.00 0.00 0.00 0.00 0.00 0.00 0.00 0.00 0.00 0.00 0.00 0.00 0.00 0.00 0.00 0.00 0.00 0.00 0.00 0.00 0.00 0.00 0.00 0.00 0.00
0.00 0.00 0.00 0.00 0.00 0.00 0.00 0.00 0.00 0.00 0.00 0.00 0.00 0.00 0.00 0.00 0.00 0.00 0.00 0.00 0.00 0.00 0.00 0.00 0.00 0.00 0.00 0.00 0.00 0.00 0.00 0.00 0.00 0.00 0.00 0.00 0.00 0.00 0.00 0.00 0.00 0.00 0.00 0.00
0.00 0.00 0.00 0.00 0.00 0.00 0.00 0.00 0.00 0.00 0.00 0.00 0.00 0.00 0.00 0.00 0.00 0.00 0.00 0.00 0.00 0.00 0.00 0.00 0.00 0.00 0.00 0.00 0.00 0.00 0.00 0.00 0.00 0.00 0.00 0.00 0.00 0.00 0.00 0.00 0.00 0.00 0.00 0.00
0.00 0.00 0.00 0.00 0.00 0.00 0.00 0.00 0.00 0.00 0.00 0.00 0.00 0.00 0.00 0.00 0.00 0.00 0.00 0.00 0.00 0.00 0.00 0.00 0.00 0.00 0.00 0.00 0.00 0.00 0.00 0.00 0.00 0.00 0.00 0.00 0.00 0.00 0.00 0.00 0.00 0.00 0.00 0.00
0.00 0.00 0.00 0.00 0.00 0.00 0.00 0.00 0.00 0.00 0.00 0.00 0.00 0.00 0.00 0.00 0.00 0.00 0.00 0.00 0.00 0.00 0.00 0.00 0.00 0.00 0.00 0.00 0.00 0.00 0.00 0.00 0.00 0.00 0.00 0.00 0.00 0.00 0.00 0.00 0.00 0.00 0.00 0.00
0.00 0.00 0.00 0.00 0.00 0.00 0.00 0.00 0.00 0.00 0.00 0.00 0.00 0.00 0.00 0.00 0.00 0.00 0.00 0.00 0.00 0.00 0.00 0.00 0.00 0.00 0.00 0.00 0.00 0.00 0.00 0.00 0.00 0.00 0.00 0.00 0.00 0.00 0.00 0.00 0.00 0.00 0.00 0.00
0.00 0.00 0.00 0.00 0.00 0.00 0.00 0.00 0.00 0.00 0.00 0.00 0.00 0.00 0.00 0.00 0.00 0.00 0.00 0.00 0.00 0.00 0.00 0.00 0.00 0.00 0.00 0.00 0.00 0.00 0.00 0.00 0.00 0.00 0.00 0.00 0.00 0.00 0.00 0.00 0.00 0.00 0.00 0.00
0.00 0.00 0.00 0.00 0.00 0.00 0.00 0.00 0.00 0.00 0.00 0.00 0.00 0.00 0.00 0.00 0.00 0.00 0.00 0.00 0.00 0.00 0.00 0.00 0.00 0.00 0.00 0.00 0.00 0.00 0.00 0.00 0.00 0.00 0.00 0.00 0.00 0.00 0.00 0.00 0.00 0.00 0.00 0.00
0.00 0.00 0.00 0.00 0.00 0.00 0.00 0.00 0.00 0.00 0.00 0.00 0.00 0.00 0.00 0.00 0.00 0.00 0.00 0.00 0.00 0.00 0.00 0.00 0.00 0.00 0.00 0.00 0.00 0.00 0.00 0.00 0.00 0.00 0.00 0.00 0.00 0.00 0.00 0.00 0.00 0.00 0.00 0.00
0.00 0.00 0.00 0.00 0.00 0.00 0.00 0.00 0.00 0.00 0.00 0.00 0.00 0.00 0.00 0.00 0.00 0.00 0.00 0.00 0.00 0.00 0.00 0.00 0.00 0.00 0.00 0.00 0.00 0.00 0.00 0.00 0.00 0.00 0.00 0.00 0.00 0.00 0.00 0.00 0.00 0.00 0.00 0.00
0.00 0.00 0.00 0.00 0.00 0.00 0.00 0.00 0.00 0.00 0.00 0.00 0.00 0.00 0.00 0.00 0.00 0.00 0.00 0.00 0.00 0.00 0.00 0.00 0.00 0.00 0.00 0.00 0.00 0.00 0.00 0.00 0.00 0.00 0.00 0.00 0.00 0.00 0.00 0.00 0.00 0.00 0.00 0.00
0.00 0.00 0.00 0.00 0.00 0.00 0.00 0.00 0.00 0.00 0.00 0.00 0.00 0.00 0.00 0.00 0.00 0.00 0.00 0.00 0.00 0.00 0.00 0.00 0.00 0.00 0.00 0.00 0.00 0.00 0.00 0.00 0.00 0.00 0.00 0.00 0.00 0.00 0.00 0.00 0.00 0.00 0.00 0.00
0.00 0.00 0.00 0.00 0.00 0.00 0.00 0.00 0.00 0.00 0.00 0.00 0.00 0.00 0.00 0.00 0.00 0.00 0.00 0.00 0.00 0.00 0.00 0.00 0.00 0.00 0.00 0.00 0.00 0.00 0.00 0.00 0.00 0.00 0.00 0.00 0.00 0.00 0.00 0.00 0.00 0.00 0.00 0.00
MSLP
1018.16 1018.62 1019.01 1019.29 1019.47 1019.54 1019.52 1019.41 1019.25 1019.04 1018.81 1018.59 1018.40 1018.25 1018.16 1018.12 1018.12 1018.15 1018.19 1018.22 1018.22 1018.18 1018.12 1018.04 1017.97 1017.92 1017.93 1018.00 1018.14 1018.34 1018.58 1018.85 1019.12 1019.37 1019.59 1019.79 1019.96 1020.12 1020.27 1020.42 1020.57 1020.71 1020.85 1020.98
1018.25 1018.65 1018.98 1019.22 1019.38 1019.46 1019.46 1019.38 1019.24 1019.05 1018.84 1018.62 1018.41 1018.24 1018.13 1018.08 1018.09 1018.15 1018.23 1018.32 1018.40 1018.45 1018.46 1018.44 1018.41 1018.40 1018.41 1018.47 1018.58 1018.74 1018.94 1019.16 1019.38 1019.57 1019.75 1019.88 1019.99 1020.09 1020.17 1020.26 1020.36 1020.47 1020.57 1020.67
1018.20 1018.54 1018.82 1019.04 1019.20 1019.30 1019.33 1019.29 1019.19 1019.02 1018.81 1018.58 1018.35 1018.15 1018.01 1017.95 1017.96 1018.05 1018.18 1018.34 1018.50 1018.63 1018.72 1018.77 1018.80 1018.81 1018.84 1018.89 1018.99 1019.12 1019.29 1019.47 1019.65 1019.81 1019.93 1020.01 1020.07 1020.10 1020.12 1020.15 1020.19 1020.24 1020.31 1020.38
1018.04 1018.32 1018.56 1018.77 1018.95 1019.08 1019.15 1019.16 1019.09 1018.94 1018.73 1018.47 1018.21 1017.97 1017.80 1017.71 1017.73 1017.83 1018.02 1018.24 1018.48 1018.70 1018.87 1019.00 1019.08 1019.13 1019.17 1019.23 1019.32 1019.44 1019.58 1019.74 1019.89 1020.02 1020.11 1020.15 1020.15 1020.12 1020.09 1020.05 1020.03 1020.03 1020.05 1020.08
1017.80 1018.03 1018.25 1018.47 1018.67 1018.84 1018.96 1019.01 1018.96 1018.82 1018.59 1018.30 1017.99 1017.70 1017.48 1017.36 1017.37 1017.50 1017.73 1018.02 1018.34 1018.64 1018.90 1019.09 1019.23 1019.32 1019.39 1019.46 1019.54 1019.66 1019.80 1019.94 1020.08 1020.18 1020.25 1020.25 1020.22 1020.15 1020.06 1019.97 1019.89 1019.84 1019.81 1019.79
1017.49 1017.70 1017.92 1018.15 1018.39 1018.61 1018.78 1018.85 1018.82 1018.67 1018.41 1018.06 1017.69 1017.34 1017.07 1016.92 1016.91 1017.06 1017.33 1017.68 1018.08 1018.47 1018.81 1019.08 1019.27 1019.41 1019.50 1019.59 1019.68 1019.79 1019.92 1020.06 1020.19 1020.29 1020.34 1020.33 1020.27 1020.16 1020.03 1019.90 1019.77 1019.67 1019.59 1019.53
1017.13 1017.33 1017.57 1017.84 1018.12 1018.39 1018.59 1018.69 1018.66 1018.48 1018.18 1017.78 1017.34 1016.93 1016.60 1016.41 1016.40 1016.55 1016.86 1017.28 1017.74 1018.21 1018.63 1018.97 1019.23 1019.41 1019.53 1019.64 1019.74 1019.85 1019.99 1020.13 1020.26 1020.36 1020.40 1020.39 1020.31 1020.18 1020.02 1019.84 1019.68 1019.53 1019.41 1019.30
1016.70 1016.92 1017.19 1017.51 1017.84 1018.15 1018.38 1018.50 1018.46 1018.26 1017.91 1017.46 1016.96 1016.49 1016.11 1015.90 1015.87 1016.04 1016.38 1016.84 1017.37 1017.91 1018.40 1018.81 1019.13 1019.35 1019.52 1019.64 1019.76 1019.89 1020.03 1020.17 1020.31 1020.41 1020.45 1020.44 1020.35 1020.20 1020.02 1019.81 1019.61 1019.43 1019.26 1019.11
1016.21 1016.45 1016.77 1017.13 1017.51 1017.86 1018.13 1018.25 1018.21 1017.99 1017.61 1017.11 1016.57 1016.06 1015.65 1015.42 1015.38 1015.56 1015.93 1016.43 1017.01 1017.61 1018.16 1018.63 1019.00 1019.28 1019.48 1019.64 1019.78 1019.92 1020.07 1020.23 1020.37 1020.47 1020.52 1020.50 1020.40 1020.24 1020.03 1019.80 1019.57 1019.35 1019.15 1018.96
1015.65 1015.93 1016.29 1016.70 1017.12 1017.50 1017.78 1017.92 1017.87 1017.64 1017.25 1016.74 1016.18 1015.66 1015.24 1015.00 1014.97 1015.16 1015.54 1016.08 1016.69 1017.33 1017.93 1018.45 1018.88 1019.20 1019.45 1019.64 1019.81 1019.97 1020.14 1020.31 1020.46 1020.56 1020.61 1020.58 1020.47 1020.29 1020.05 1019.79 1019.52 1019.27 1019.02 1018.80
1015.06 1015.38 1015.77 1016.21 1016.66 1017.05 1017.34 1017.48 1017.44 1017.21 1016.83 1016.33 1015.79 1015.29 1014.89 1014.66 1014.65 1014.85 1015.25 1015.80 1016.44 1017.11 1017.74 1018.30 1018.77 1019.14 1019.43 1019.67 1019.87 1020.06 1020.25 1020.42 1020.57 1020.68 1020.71 1020.66 1020.53 1020.32 1020.05 1019.74 1019.43 1019.13 1018.85 1018.59
1014.53 1014.87 1015.28 1015.72 1016.16 1016.54 1016.82 1016.95 1016.91 1016.70 1016.34 1015.89 1015.39 1014.94 1014.58 1014.40 1014.42 1014.64 1015.05 1015.61 1016.26 1016.93 1017.59 1018.18 1018.68 1019.09 1019.42 1019.70 1019.94 1020.16 1020.36 1020.54 1020.69 1020.78 1020.80 1020.72 1020.55 1020.30 1019.98 1019.63 1019.26 1018.91 1018.58 1018.28
1014.12 1014.46 1014.85 1015.27 1015.67 1016.01 1016.25 1016.36 1016.31 1016.12 1015.80 1015.40 1014.97 1014.59 1014.31 1014.19 1014.25 1014.50 1014.92 1015.49 1016.13 1016.81 1017.47 1018.08 1018.61 1019.05 1019.42 1019.73 1020.00 1020.24 1020.45 1020.64 1020.78 1020.85 1020.83 1020.72 1020.50 1020.20 1019.82 1019.41 1018.98 1018.57 1018.19 1017.85
1013.90 1014.22 1014.57 1014.92 1015.24 1015.50 1015.68 1015.73 1015.66 1015.47 1015.20 1014.86 1014.52 1014.23 1014.04 1013.99 1014.11 1014.41 1014.85 1015.41 1016.06 1016.73 1017.39 1018.00 1018.55 1019.01 1019.41 1019.74 1020.03 1020.28 1020.50 1020.68 1020.80 1020.84 1020.78 1020.63 1020.36 1020.00 1019.56 1019.09 1018.59 1018.12 1017.69 1017.29
1013.88 1014.16 1014.44 1014.70 1014.91 1015.06 1015.13 1015.10 1014.99 1014.80 1014.55 1014.29 1014.04 1013.85 1013.76 1013.81 1014.00 1014.34 1014.81 1015.39 1016.04 1016.70 1017.36 1017.96 1018.51 1018.98 1019.38 1019.73 1020.02 1020.27 1020.48 1020.63 1020.72 1020.73 1020.63 1020.43 1020.11 1019.70 1019.21 1018.67 1018.12 1017.58 1017.09 1016.64
1014.03 1014.26 1014.45 1014.58 1014.66 1014.68 1014.62 1014.50 1014.33 1014.11 1013.89 1013.68 1013.53 1013.45 1013.47 1013.62 1013.90 1014.31 1014.82 1015.42 1016.07 1016.73 1017.37 1017.97 1018.50 1018.96 1019.36 1019.69 1019.97 1020.19 1020.37 1020.49 1020.54 1020.51 1020.37 1020.13 1019.77 1019.32 1018.78 1018.19 1017.59 1017.00 1016.45 1015.96
1014.25 1014.41 1014.51 1014.52 1014.46 1014.33 1014.15 1013.92 1013.68 1013.44 1013.24 1013.09 1013.02 1013.05 1013.19 1013.46 1013.84 1014.32 1014.89 1015.52 1016.18 1016.84 1017.46 1018.04 1018.54 1018.98 1019.34 1019.64 1019.87 1020.05 1020.19 1020.26 1020.26 1020.18 1020.01 1019.74 1019.36 1018.88 1018.32 1017.70 1017.07 1016.44 1015.84 1015.29
1014.38 1014.50 1014.51 1014.42 1014.24 1013.98 1013.68 1013.36 1013.06 1012.81 1012.63 1012.55 1012.57 1012.72 1012.98 1013.36 1013.84 1014.41 1015.04 1015.71 1016.38 1017.03 1017.64 1018.18 1018.64 1019.03 1019.33 1019.57 1019.74 1019.86 1019.93 1019.94 1019.89 1019.77 1019.57 1019.28 1018.89 1018.41 1017.85 1017.23 1016.58 1015.93 1015.30 1014.71
1014.31 1014.40 1014.35 1014.18 1013.91 1013.57 1013.19 1012.81 1012.49 1012.25 1012.11 1012.10 1012.23 1012.49 1012.88 1013.37 1013.96 1014.61 1015.30 1015.99 1016.67 1017.31 1017.89 1018.38 1018.78 1019.10 1019.33 1019.49 1019.58 1019.62 1019.61 1019.56 1019.45 1019.29 1019.07 1018.77 1018.39 1017.93 1017.39 1016.79 1016.15 1015.50 1014.84 1014.21
1013.96 1014.03 1013.96 1013.76 1013.45 1013.07 1012.66 1012.29 1011.98 1011.78 1011.73 1011.81 1012.05 1012.43 1012.93 1013.54 1014.21 1014.93 1015.66 1016.38 1017.05 1017.65 1018.18 1018.61 1018.94 1019.17 1019.32 1019.38 1019.38 1019.33 1019.24 1019.12 1018.96 1018.77 1018.52 1018.23 1017.87 1017.43 1016.93 1016.37 1015.76 1015.11 1014.45 1013.79
1013.33 1013.41 1013.34 1013.14 1012.85 1012.49 1012.13 1011.80 1011.57 1011.46 1011.50 1011.70 1012.06 1012.55 1013.16 1013.86 1014.60 1015.37 1016.11 1016.82 1017.46 1018.01 1018.47 1018.82 1019.06 1019.20 1019.25 1019.21 1019.12 1018.99 1018.82 1018.63 1018.42 1018.19 1017.94 1017.65 1017.31 1016.91 1016.45 1015.93 1015.35 1014.73 1014.07 1013.40
1012.50 1012.59 1012.56 1012.41 1012.18 1011.90 1011.63 1011.41 1011.29 1011.31 1011.47 1011.80 1012.27 1012.87 1013.56 1014.31 1015.09 1015.87 1016.60 1017.26 1017.84 1018.32 1018.69 1018.94 1019.09 1019.13 1019.08 1018.96 1018.79 1018.57 1018.34 1018.09 1017.84 1017.59 1017.32 1017.04 1016.72 1016.35 1015.93 1015.45 1014.90 1014.30 1013.66 1012.98
1011.62 1011.73 1011.74 1011.67 1011.53 1011.37 1011.23 1011.15 1011.18 1011.33 1011.64 1012.08 1012.65 1013.33 1014.08 1014.85 1015.63 1016.37 1017.05 1017.64 1018.13 1018.51 1018.78 1018.93 1018.98 1018.93 1018.80 1018.61 1018.36 1018.09 1017.81 1017.52 1017.24 1016.96 1016.68 1016.39 1016.08 1015.74 1015.34 1014.88 1014.37 1013.79 1013.16 1012.49
1010.85 1010.97 1011.03 1011.04 1011.01 1010.98 1010.98 1011.06 1011.24 1011.54 1011.97 1012.51 1013.16 1013.88 1014.65 1015.41 1016.14 1016.82 1017.40 1017.89 1018.27 1018.54 1018.69 1018.75 1018.70 1018.58 1018.39 1018.14 1017.85 1017.55 1017.23 1016.92 1016.62 1016.32 1016.03 1015.73 1015.42 1015.08 1014.69 1014.24 1013.74 1013.18 1012.56 1011.89
1010.32 1010.45 1010.55 1010.64 1010.71 1010.80 1010.94 1011.16 1011.47 1011.89 1012.42 1013.04 1013.73 1014.46 1015.20 1015.91 1016.56 1017.13 1017.61 1017.97 1018.23 1018.38 1018.43 1018.39 1018.27 1018.09 1017.86 1017.58 1017.28 1016.96 1016.64 1016.32 1016.01 1015.70 1015.39 1015.08 1014.75 1014.39 1014.00 1013.55 1013.05 1012.49 1011.88 1011.22
1010.12 1010.25 1010.38 1010.51 1010.67 1010.86 1011.11 1011.44 1011.85 1012.35 1012.93 1013.58 1014.28 1014.98 1015.66 1016.29 1016.83 1017.29 1017.64 1017.88 1018.01 1018.05 1018.01 1017.89 1017.72 1017.50 1017.25 1016.97 1016.67 1016.37 1016.05 1015.74 1015.42 1015.11 1014.79 1014.45 1014.10 1013.72 1013.31 1012.84 1012.33 1011.77 1011.16 1010.51
Thickness
5667 5668 5669 5674 5675 5675 5672 5670 5671 5676 5677 5671 5677 5681 5686 5685 5682 5683 5682 5680 5678 5674 5673 5674 5675 5675 5674 5672 5669 5666 5662 5658 5653 5649 5644 5640 5636 5633 5630 5626 5623 5620 5616 5613
5658 5663 5672 5669 5663 5661 5662 5662 5668 5672 5666 5666 5671 5675 5680 5677 5677 5678 5676 5674 5671 5670 5668 5667 5667 5667 5666 5663 5660 5658 5654 5650 5646 5641 5638 5634 5630 5627 5625 5621 5618 5615 5611 5608
5657 5663 5660 5657 5655 5654 5657 5660 5666 5664 5665 5661 5661 5674 5672 5671 5671 5667 5668 5667 5665 5664 5662 5660 5659 5657 5656 5653 5650 5647 5644 5641 5637 5632 5629 5624 5621 5619 5618 5616 5613 5610 5606 5603
5654 5657 5650 5652 5654 5655 5656 5662 5658 5655 5657 5666 5659 5668 5672 5669 5665 5663 5662 5661 5659 5656 5655 5653 5651 5648 5645 5642 5640 5638 5635 5631 5627 5624 5621 5619 5616 5615 5613 5610 5607 5604 5600 5597
5651 5647 5646 5649 5655 5653 5656 5651 5650 5650 5652 5656 5656 5659 5676 5666 5662 5662 5660 5657 5653 5650 5647 5644 5642 5639 5636 5633 5630 5629 5626 5622 5619 5616 5613 5611 5609 5607 5605 5602 5600 5597 5595 5591
5650 5648 5650 5653 5649 5648 5645 5644 5640 5641 5647 5650 5658 5656 5671 5668 5669 5665 5659 5654 5648 5644 5640 5637 5634 5631 5628 5624 5622 5620 5618 5614 5610 5608 5605 5602 5600 5598 5597 5595 5593 5590 5588 5584
5637 5642 5646 5647 5642 5638 5642 5645 5644 5645 5646 5655 5647 5647 5668 5673 5670 5668 5660 5653 5646 5640 5636 5632 5628 5625 5621 5617 5614 5612 5610 5606 5603 5600 5597 5594 5591 5589 5588 5586 5584 5582 5580 5578
5633 5640 5643 5644 5648 5644 5642 5645 5644 5643 5649 5652 5640 5648 5669 5664 5659 5657 5656 5651 5642 5635 5631 5626 5622 5618 5614 5610 5606 5604 5602 5598 5594 5592 5589 5586 5582 5580 5578 5575 5573 5571 5570 5567
5637 5637 5634 5637 5640 5644 5636 5640 5644 5642 5634 5638 5652 5656 5663 5655 5650 5647 5645 5642 5636 5630 5625 5619 5615 5611 5607 5602 5599 5595 5593 5589 5585 5582 5579 5577 5574 5571 5568 5566 5563 5561 5558 5555
5641 5633 5629 5627 5631 5628 5636 5639 5632 5634 5630 5634 5645 5649 5658 5654 5651 5644 5639 5637 5632 5625 5618 5613 5608 5603 5598 5594 5590 5587 5583 5580 5576 5573 5570 5566 5564 5561 5558 5556 5553 5550 5547 5544
5636 5632 5621 5622 5626 5631 5624 5624 5631 5633 5631 5631 5635 5651 5658 5655 5651 5645 5640 5635 5628 5620 5613 5606 5601 5595 5590 5585 5581 5578 5574 5571 5567 5564 5560 5557 5555 5551 5548 5545 5542 5538 5535 5531
5629 5631 5626 5623 5621 5624 5630 5633 5631 5627 5625 5623 5629 5644 5649 5646 5643 5638 5633 5626 5619 5612 5605 5598 5592 5587 5582 5577 5573 5568 5565 5561 5557 5553 5550 5547 5544 5540 5537 5534 5530 5526 5523 5519
5622 5624 5618 5615 5613 5612 5617 5619 5621 5625 5624 5621 5620 5638 5636 5634 5630 5626 5622 5615 5608 5601 5594 5589 5583 5578 5573 5568 5563 5559 5555 5550 5546 5543 5539 5537 5533 5530 5526 5522 5518 5513 5509 5505
5622 5624 5627 5627 5630 5625 5617 5613 5612 5615 5617 5620 5624 5637 5632 5626 5622 5618 5612 5606 5600 5592 5585 5580 5575 5570 5564 5558 5554 5549 5545 5540 5535 5531 5528 5525 5522 5518 5513 5509 5504 5500 5495 5490
5614 5618 5621 5621 5617 5617 5620 5617 5608 5611 5623 5622 5632 5632 5635 5628 5620 5613 5605 5596 5588 5581 5575 5569 5564 5560 5554 5548 5543 5538 5533 5529 5524 5521 5517 5513 5509 5504 5500 5495 5491 5486 5480 5475
5607 5609 5607 5605 5601 5602 5603 5612 5611 5610 5615 5619 5621 5625 5627 5617 5608 5601 5594 5585 5577 5571 5565 5558 5552 5547 5543 5538 5532 5527 5523 5518 5513 5510 5506 5501 5496 5491 5486 5482 5477 5472 5466 5461
5599 5600 5599 5602 5590 5590 5600 5618 5614 5611 5613 5613 5613 5620 5611 5600 5594 5590 5583 5575 5568 5562 5554 5548 5542 5537 5531 5526 5520 5516 5511 5506 5502 5498 5494 5488 5483 5478 5473 5468 5463 5458 5453 5447
5594 5595 5595 5591 5583 5580 5619 5613 5612 5610 5612 5608 5606 5601 5596 5591 5582 5576 5571 5565 5557 5550 5542 5536 5530 5524 5519 5514 5509 5504 5499 5495 5491 5487 5482 5477 5470 5465 5460 5455 5449 5444 5439 5432
5586 5588 5585 5578 5582 5594 5606 5602 5598 5596 5602 5601 5595 5589 5580 5572 5567 5561 5554 5549 5544 5537 5530 5524 5518 5512 5507 5502 5498 5493 5489 5485 5480 5476 5470 5464 5458 5452 5447 5441 5436 5430 5424 5418
5566 5576 5578 5568 5568 5577 5602 5594 5589 5588 5592 5592 5584 5577 5568 5562 5562 5557 5542 5534 5528 5522 5516 5511 5506 5501 5496 5492 5486 5481 5478 5474 5470 5464 5458 5451 5445 5439 5433 5428 5422 5415 5408 5402
5559 5562 5568 5568 5567 5584 5591 5579 5577 5576 5588 5577 5573 5567 5559 5556 5554 5541 5529 5522 5515 5509 5503 5498 5493 5489 5485 5480 5474 5470 5467 5463 5458 5451 5445 5438 5432 5426 5420 5414 5407 5400 5393 5387
5567 5564 5564 5565 5561 5571 5572 5567 5571 5577 5567 5564 5559 5553 5547 5540 5529 5521 5515 5508 5501 5496 5491 5486 5482 5479 5474 5468 5463 5459 5456 5452 5445 5439 5433 5427 5420 5413 5405 5399 5393 5385 5378 5373
5565 5572 5572 5570 5573 5566 5563 5564 5560 5557 5554 5550 5545 5538 5531 5523 5515 5507 5501 5495 5490 5484 5480 5475 5471 5467 5463 5457 5451 5447 5444 5439 5432 5426 5421 5415 5408 5400 5392 5385 5379 5372 5364 5358
5555 5551 5555 5555 5557 5553 5548 5546 5543 5542 5541 5535 5529 5522 5516 5509 5502 5495 5488 5483 5478 5473 5469 5463 5459 5456 5453 5448 5442 5436 5432 5425 5419 5414 5409 5402 5396 5389 5381 5373 5365 5357 5351 5346
5555 5543 5545 5547 5545 5537 5535 5533 5531 5526 5522 5516 5510 5505 5500 5494 5488 5482 5477 5472 5467 5461 5457 5452 5447 5444 5441 5436 5431 5425 5419 5413 5407 5402 5396 5390 5383 5376 5370 5362 5354 5346 5341 5332
5538 5538 5540 5545 5541 5536 5533 5524 5518 5513 5507 5501 5495 5489 5484 5480 5475 5470 5465 5461 5455 5450 5445 5440 5436 5433 5429 5425 5420 5413 5406 5400 5393 5389 5383 5377 5369 5363 5356 5351 5347 5341 5333 5329